TimeAKDT,TemperatureF,Dew PointF,Humidity,Sea Level PressureIn,VisibilityMPH,Wind Direction,Wind SpeedMPH,Gust SpeedMPH,PrecipitationIn,Events,Conditions,WindDirDegrees,DateUTC
12:16 AM,19.4,8.6,63,30.11,10.0,Calm,Calm,-,N/A,,Clear,0,2014-04-11 08:16:00
12:36 AM,17.6,6.8,63,30.11,10.0,Calm,Calm,-,N/A,,Clear,0,2014-04-11 08:36:00
12:56 AM,17.6,6.8,63,30.12,10.0,Calm,Calm,-,N/A,,Clear,0,2014-04-11 08:56:00
1:16 AM,17.6,8.6,68,30.13,10.0,Calm,Calm,-,N/A,,Clear,0,2014-04-11 09:16:00
1:36 AM,15.8,6.8,68,30.13,10.0,Calm,Calm,-,N/A,,Clear,0,2014-04-11 09:36:00
1:56 AM,17.6,6.8,63,30.13,10.0,Calm,Calm,-,N/A,,Clear,0,2014-04-11 09:56:00
2:16 AM,15.8,5.0,62,30.13,10.0,ENE,3.5,-,N/A,,Clear,70,2014-04-11 10:16:00
2:36 AM,14.0,3.2,62,30.14,10.0,Calm,Calm,-,N/A,,Clear,0,2014-04-11 10:36:00
2:56 AM,15.8,6.8,68,30.15,10.0,East,3.5,-,N/A,,Clear,80,2014-04-11 10:56:00
3:16 AM,14.0,5.0,67,30.15,10.0,Calm,Calm,-,N/A,,Clear,0,2014-04-11 11:16:00
3:36 AM,14.0,6.8,73,30.16,10.0,Calm,Calm,-,N/A,,Clear,0,2014-04-11 11:36:00
3:56 AM,12.2,5.0,73,30.16,10.0,Calm,Calm,-,N/A,,Clear,0,2014-04-11 11:56:00
4:16 AM,12.2,3.2,67,30.16,10.0,ENE,3.5,-,N/A,,Clear,70,2014-04-11 12:16:00
4:36 AM,12.2,6.8,79,30.16,10.0,ENE,4.6,-,N/A,,Clear,70,2014-04-11 12:36:00
4:56 AM,12.2,6.8,79,30.16,10.0,East,3.5,-,N/A,,Clear,80,2014-04-11 12:56:00
5:16 AM,14.0,5.0,67,30.16,10.0,East,4.6,-,N/A,,Clear,80,2014-04-11 13:16:00
5:36 AM,12.2,3.2,67,30.16,10.0,East,4.6,-,N/A,,Clear,80,2014-04-11 13:36:00
5:56 AM,12.2,3.2,67,30.17,10.0,East,4.6,-,N/A,,Clear,80,2014-04-11 13:56:00
6:16 AM,12.2,3.2,67,30.16,10.0,East,5.8,-,N/A,,Clear,80,2014-04-11 14:16:00
6:36 AM,12.2,3.2,67,30.17,10.0,East,5.8,-,N/A,,Clear,90,2014-04-11 14:36:00
6:56 AM,12.2,3.2,67,30.18,10.0,East,3.5,-,N/A,,Clear,90,2014-04-11 14:56:00
7:16 AM,12.2,3.2,67,30.19,10.0,East,4.6,-,N/A,,Clear,80,2014-04-11 15:16:00
7:36 AM,12.2,3.2,67,30.19,10.0,East,5.8,-,N/A,,Clear,90,2014-04-11 15:36:00
7:56 AM,12.2,5.0,73,30.20,10.0,East,4.6,-,N/A,,Clear,80,2014-04-11 15:56:00
8:16 AM,14.0,6.8,73,30.20,10.0,East,4.6,-,N/A,,Clear,90,2014-04-11 16:16:00
8:36 AM,15.8,6.8,68,30.21,10.0,East,4.6,-,N/A,,Clear,90,2014-04-11 16:36:00
8:56 AM,17.6,8.6,68,30.21,10.0,East,4.6,-,N/A,,Clear,90,2014-04-11 16:56:00
9:16 AM,19.4,8.6,63,30.22,10.0,East,3.5,-,N/A,,Clear,90,2014-04-11 17:16:00
9:36 AM,21.2,8.6,58,30.22,10.0,East,3.5,-,N/A,,Clear,90,2014-04-11 17:36:00
9:56 AM,24.8,10.4,54,30.22,10.0,East,3.5,-,N/A,,Clear,80,2014-04-11 17:56:00
10:16 AM,28.4,10.4,47,30.23,10.0,East,3.5,-,N/A,,Clear,90,2014-04-11 18:16:00
10:36 AM,30.2,10.4,44,30.24,10.0,Calm,Calm,-,N/A,,Clear,0,2014-04-11 18:36:00
10:56 AM,32.0,10.4,41,30.24,10.0,Calm,Calm,-,N/A,,Clear,0,2014-04-11 18:56:00
11:16 AM,33.8,8.6,35,30.24,10.0,NNE,3.5,-,N/A,,Clear,30,2014-04-11 19:16:00
11:36 AM,33.8,10.4,38,30.24,10.0,ENE,4.6,-,N/A,,Clear,60,2014-04-11 19:36:00
11:56 AM,35.6,10.4,35,30.24,10.0,Calm,Calm,-,N/A,,Clear,0,2014-04-11 19:56:00
12:16 PM,35.6,8.6,33,30.24,10.0,NW,4.6,-,N/A,,Clear,320,2014-04-11 20:16:00
12:36 PM,35.6,8.6,33,30.24,10.0,Calm,Calm,-,N/A,,Clear,0,2014-04-11 20:36:00
12:56 PM,37.4,10.4,33,30.24,10.0,Calm,Calm,-,N/A,,Clear,0,2014-04-11 20:56:00
1:16 PM,37.4,10.4,33,30.24,10.0,West,3.5,-,N/A,,Clear,280,2014-04-11 21:16:00
1:36 PM,39.2,10.4,31,30.24,10.0,West,3.5,-,N/A,,Clear,260,2014-04-11 21:36:00
1:56 PM,39.2,10.4,31,30.24,10.0,Calm,Calm,-,N/A,,Clear,0,2014-04-11 21:56:00
2:16 PM,39.2,10.4,31,30.24,10.0,NNW,4.6,-,N/A,,Clear,330,2014-04-11 22:16:00
2:36 PM,39.2,14.0,36,30.24,10.0,WNW,9.2,-,N/A,,Clear,290,2014-04-11 22:36:00
2:56 PM,39.2,15.8,39,30.24,10.0,WNW,9.2,-,N/A,,Clear,290,2014-04-11 22:56:00
3:16 PM,39.2,15.8,39,30.24,10.0,West,10.4,-,N/A,,Clear,270,2014-04-11 23:16:00
3:36 PM,41.0,15.8,36,30.24,10.0,West,9.2,-,N/A,,Clear,270,2014-04-11 23:36:00
3:56 PM,41.0,15.8,36,30.24,10.0,WNW,10.4,-,N/A,,Clear,300,2014-04-11 23:56:00
4:16 PM,41.0,15.8,36,30.24,10.0,WNW,8.1,18.4,N/A,,Clear,300,2014-04-12 00:16:00
4:36 PM,39.2,17.6,42,30.23,10.0,West,8.1,-,N/A,,Clear,280,2014-04-12 00:36:00
4:56 PM,41.0,17.6,39,30.23,10.0,WNW,10.4,-,N/A,,Clear,290,2014-04-12 00:56:00
5:16 PM,41.0,17.6,39,30.23,10.0,NW,5.8,-,N/A,,Clear,310,2014-04-12 01:16:00
5:36 PM,39.2,15.8,39,30.23,10.0,North,5.8,-,N/A,,Clear,350,2014-04-12 01:36:00
5:56 PM,39.2,17.6,42,30.23,10.0,NNW,5.8,-,N/A,,Clear,330,2014-04-12 01:56:00
6:16 PM,39.2,15.8,39,30.23,10.0,NW,5.8,-,N/A,,Clear,320,2014-04-12 02:16:00
6:36 PM,39.2,15.8,39,30.23,10.0,NNW,5.8,-,N/A,,Clear,340,2014-04-12 02:36:00
6:56 PM,39.2,14.0,36,30.23,10.0,Calm,Calm,-,N/A,,Clear,0,2014-04-12 02:56:00
7:16 PM,39.2,12.2,33,30.23,10.0,Calm,Calm,-,N/A,,Clear,0,2014-04-12 03:16:00
7:36 PM,37.4,12.2,36,30.24,10.0,Calm,Calm,-,N/A,,Clear,0,2014-04-12 03:36:00
7:56 PM,37.4,12.2,36,30.24,10.0,Calm,Calm,-,N/A,,Clear,0,2014-04-12 03:56:00
8:16 PM,37.4,12.2,36,30.24,10.0,NNW,3.5,-,N/A,,Clear,340,2014-04-12 04:16:00
8:36 PM,37.4,12.2,36,30.25,10.0,Calm,Calm,-,N/A,,Clear,0,2014-04-12 04:36:00
8:56 PM,37.4,12.2,36,30.24,10.0,Calm,Calm,-,N/A,,Clear,0,2014-04-12 04:56:00
9:16 PM,35.6,12.2,38,30.25,10.0,Calm,Calm,-,N/A,,Clear,0,2014-04-12 05:16:00
9:36 PM,35.6,12.2,38,30.25,10.0,Calm,Calm,-,N/A,,Clear,0,2014-04-12 05:36:00
9:56 PM,33.8,15.8,48,30.25,10.0,Calm,Calm,-,N/A,,Clear,0,2014-04-12 05:56:00
10:16 PM,30.2,15.8,55,30.25,10.0,Calm,Calm,-,N/A,,Clear,0,2014-04-12 06:16:00
10:36 PM,32.0,15.8,51,30.25,10.0,Calm,Calm,-,N/A,,Clear,0,2014-04-12 06:36:00
10:56 PM,32.0,15.8,51,30.25,10.0,Calm,Calm,-,N/A,,Partly Cloudy,0,2014-04-12 06:56:00
11:16 PM,30.2,17.6,60,30.26,10.0,Calm,Calm,-,N/A,,Mostly Cloudy,0,2014-04-12 07:16:00
11:36 PM,30.2,17.6,60,30.25,10.0,Calm,Calm,-,N/A,,Overcast,0,2014-04-12 07:36:00
11:56 PM,30.2,17.6,60,30.25,10.0,Calm,Calm,-,N/A,,Overcast,0,2014-04-12 07:56:00